Torna al catalogo

STARLINK-30844

AttivoComunicazioniVLEO
NORAD 58403·PAYLOAD·🇺🇸 United States

Lanciato Nov 22, 2023 da Cape Canaveral Space Force Station

Loading…

Prossimi Passaggi (prossime 24 ore)

TLE

AggiornatoSource: CelesTrak SupGP

Epoca: Sep 14, 2026, 21:31 UTC

1 58403C 23180B   26257.89701389  .00066873  00000+0  24214-2 0  2572
2 58403  43.0043  64.3084 0002156 273.7260 291.9690 15.27554064    18

Traccia STARLINK-30844 in tempo reale con AllMySat

Download on the App Store